Location: Ebersheim
(48.3033°N, 7.4991°E)
Time: 16:47:04
(UTC+00:00)

Cosmos 1814 Rocket - Pass Details

Date: 27 February 2020
Orbit: 744 x 788 km, 74.1° (Epoch: 30 March)

Event Time Altitude Azimuth Distance (km) Brightness Sun altitude
Rises 18:54:11 0° 186° (S) 3,172 7.2 -18.1°
Reaches altitude 10° 18:56:34 10° 181° (S) 2,253 6.3 -18.4°
Maximum altitude 19:01:30 51° 106° (ESE) 934 4.0 -19.3°
Drops below altitude 10° 19:06:29 10° 32° (NNE) 2,279 6.2 -20.1°
Sets 19:08:54 0° 27° (NNE) 3,213 7.1 -20.5°
